Cairns, Australia

2:02 PM AEST on April 29, 2017 (GMT +1000)
Cairns International

Weather History for YBCS - May, 2013

Change the Weather History Date:

Wednesday, May 1, 2013

  Actual Average Record
Temperature  
Mean Temperature 80 °F -  
Max Temperature 85 °F 82 °F 87 °F (2007)
Min Temperature 75 °F 68 °F 65 °F (2015)
Cooling Degree Days 15    
Growing Degree Days 30 (Base 50)    
Moisture  
Dew Point 70 °F    
Average Humidity 72    
Maximum Humidity 89    
Minimum Humidity 53    
Precipitation  
Precipitation 0.02 in 0.14 in - ()
Sea Level Pressure  
Sea Level Pressure 29.90 in    
Wind  
Wind Speed 17 mph ()    
Max Wind Speed 24 mph    
Max Gust Speed 33 mph    
Visibility 7.3 miles    
Events Rain    
Averages and records for this station are not official NWS values.
T = Trace of Precipitation, MM = Missing Value Source: Averaged Metar Reports

Daily Weather History Graph

Daily Weather History Graph

Search for Another Location

Airport or City:

Trip Planner

Search our weather history database for the weather conditions in past years. The results will help you decide how hot, cold, wet, or windy it might be!

Date:

Astronomy

May. 01, 2013 Rise Set
Actual Time 6:29 AM AEST 5:58 PM AEST
Civil Twilight 6:06 AM AEST 6:21 PM AEST
Nautical Twilight 5:41 AM AEST 6:46 PM AEST
Astronomical Twilight 5:15 AM AEST 7:12 PM AEST
Moon 11:21 PM AEST (5/1) 11:34 AM AEST (5/1)
Length of Visible Light 12h 14m
Length of Day
11h 29m
Waning Gibbous, 66% of the Moon is Illuminated
May 1
Waning Gibbous
May 2
Last Quarter
May 10
New
May 18
First Quarter
May 25
Full

Hourly Weather History & Observations

Time (AEST) Temp. Heat Index Dew Point Humidity Pressure Visibility Wind Dir Wind Speed Gust Speed Precip Events Conditions
12:00 AM 77 °F - 70 °F 73% 29.94 in 7 mi SSE 17.3 mph - -   Mostly Cloudy
12:00 AM 77.0 °F - 69.8 °F 78% 29.92 in 6.2 mi SSE 17.3 mph - N/A   Mostly Cloudy
12:30 AM 77.0 °F - 69.8 °F 78% 29.92 in 6.2 mi SSE 16.1 mph - N/A   Mostly Cloudy
1:00 AM 76 °F - 71 °F 80% 29.93 in - SSE 16.1 mph - -  
1:00 AM 77.0 °F - 71.6 °F 83% 29.92 in 6.2 mi SSE 16.1 mph - N/A   Mostly Cloudy
1:30 AM 77.0 °F - 69.8 °F 78% 29.89 in 6.2 mi SSE 17.3 mph - N/A   Mostly Cloudy
2:00 AM 77.0 °F - 69.8 °F 78% 29.89 in 6.2 mi South 17.3 mph - N/A   Mostly Cloudy
2:30 AM 77.0 °F - 69.8 °F 78% 29.86 in 6.2 mi SSE 16.1 mph - N/A   Mostly Cloudy
3:00 AM 77 °F - 69 °F 71% 29.88 in 12 mi SSE 18.4 mph - -   Partly Cloudy
3:00 AM 77.0 °F - 69.8 °F 78% 29.86 in 6.2 mi SSE 18.4 mph - N/A   Mostly Cloudy
3:30 AM 75.2 °F - 71.6 °F 89% 29.86 in 6.2 mi SSE 17.3 mph - N/A   Mostly Cloudy
4:00 AM 76 °F - 71 °F 78% 29.88 in - SSE 12.7 mph - -  
4:00 AM 75.2 °F - 69.8 °F 83% 29.86 in 5.0 mi SSE 12.7 mph - N/A Rain Light Rain Showers
4:30 AM 75.2 °F - 69.8 °F 83% 29.86 in 6.2 mi SSE 16.1 mph - N/A   Mostly Cloudy
5:00 AM 77.0 °F - 69.8 °F 78% 29.86 in 6.2 mi SSE 15.0 mph - N/A Rain Light Rain Showers
5:30 AM 77.0 °F - 69.8 °F 78% 29.86 in 6.2 mi SSE 17.3 mph - N/A   Mostly Cloudy
6:00 AM 76 °F - 71 °F 78% 29.89 in 12 mi South 17.3 mph - -   Partly Cloudy
6:00 AM 77.0 °F - 69.8 °F 78% 29.89 in 6.2 mi South 17.3 mph - N/A   Mostly Cloudy
6:30 AM 77.0 °F - 69.8 °F 78% 29.89 in 6.2 mi South 17.3 mph - N/A   Mostly Cloudy
7:00 AM 76 °F - 70 °F 76% 29.92 in - SSE 17.3 mph - -  
7:00 AM 75.2 °F - 69.8 °F 83% 29.92 in 6.2 mi SSE 17.3 mph - N/A   Mostly Cloudy
7:30 AM 77.0 °F - 69.8 °F 78% 29.92 in 6.2 mi SSE 13.8 mph - N/A   Mostly Cloudy
8:00 AM 78.8 °F - 71.6 °F 78% 29.92 in 6.2 mi SE 19.6 mph - N/A   Mostly Cloudy
8:30 AM 80.6 °F 83.9 °F 69.8 °F 70% 29.92 in 6.2 mi SE 21.9 mph - N/A   Mostly Cloudy
9:00 AM 81 °F - 70 °F 62% 29.94 in 19 mi SE 24.2 mph - -   Partly Cloudy
9:00 AM 80.6 °F 83.9 °F 69.8 °F 70% 29.92 in 6.2 mi SE 24.2 mph - N/A   Scattered Clouds
9:30 AM 82.4 °F 86.3 °F 69.8 °F 66% 29.95 in 6.2 mi SE 23.0 mph - N/A   Mostly Cloudy
10:00 AM 83 °F - 70 °F 57% 29.96 in - SE 20.7 mph - -  
10:00 AM 82.4 °F 86.3 °F 69.8 °F 66% 29.95 in 6.2 mi SE 20.7 mph - N/A   Mostly Cloudy
10:30 AM 82.4 °F 86.3 °F 69.8 °F 66% 29.95 in 6.2 mi SE 21.9 mph - N/A   Mostly Cloudy
11:00 AM 84.2 °F 89.6 °F 71.6 °F 66% 29.92 in 6.2 mi SE 20.7 mph - N/A   Mostly Cloudy
11:24 AM 84.2 °F 92.3 °F 75.2 °F 74% 29.92 in 6.2 mi SE 21.9 mph 33.4 mph N/A   Mostly Cloudy
11:30 AM 84.2 °F 88.4 °F 69.8 °F 62% 29.92 in 6.2 mi SE 24.2 mph - N/A   Mostly Cloudy
12:00 PM 85 °F - 71 °F 53% 29.91 in 19 mi SE 23.0 mph - -   Partly Cloudy
12:00 PM 84.2 °F 88.4 °F 69.8 °F 62% 29.89 in 6.2 mi SE 23.0 mph - N/A   Mostly Cloudy
12:30 PM 82.4 °F 86.3 °F 69.8 °F 66% 29.89 in 6.2 mi SE 21.9 mph - N/A   Mostly Cloudy
1:00 PM 82 °F - 69 °F 55% 29.89 in - SE 21.9 mph - -  
1:00 PM 82.4 °F 85.4 °F 68.0 °F 62% 29.89 in 6.2 mi SE 21.9 mph - N/A   Mostly Cloudy
1:30 PM 82.4 °F 86.3 °F 69.8 °F 66% 29.86 in 6.2 mi SE 20.7 mph - N/A   Mostly Cloudy
2:00 PM 82.4 °F 85.4 °F 68.0 °F 62% 29.86 in 6.2 mi SE 24.2 mph - N/A   Mostly Cloudy
2:30 PM 82.4 °F 85.4 °F 68.0 °F 62% 29.86 in 6.2 mi SSE 21.9 mph - N/A   Mostly Cloudy
3:00 PM 82 °F - 68 °F 54% 29.86 in 19 mi SE 23.0 mph - -   Partly Cloudy
3:00 PM 82.4 °F 85.4 °F 68.0 °F 62% 29.86 in 6.2 mi SE 23.0 mph - N/A   Mostly Cloudy
3:30 PM 82.4 °F 84.6 °F 66.2 °F 58% 29.86 in 6.2 mi SE 23.0 mph - N/A   Mostly Cloudy
3:42 PM 82.4 °F 85.4 °F 68.0 °F 62% 29.86 in 6.2 mi SE 20.7 mph 32.2 mph N/A   Mostly Cloudy
4:00 PM 81 °F - 68 °F 55% 29.87 in - SE 23.0 mph - -  
4:00 PM 80.6 °F 83.2 °F 68.0 °F 65% 29.86 in 6.2 mi SE 23.0 mph - N/A   Mostly Cloudy
4:30 PM 80.6 °F 82.7 °F 66.2 °F 61% 29.86 in 6.2 mi SSE 24.2 mph - N/A   Mostly Cloudy
5:00 PM 80.6 °F 83.2 °F 68.0 °F 65% 29.89 in 6.2 mi SE 21.9 mph - N/A   Mostly Cloudy
5:30 PM 80.6 °F 83.2 °F 68.0 °F 65% 29.89 in 6.2 mi SSE 20.7 mph - N/A   Mostly Cloudy
6:00 PM 79 °F - 68 °F 61% 29.90 in - SE 23.0 mph - -   Overcast
6:00 PM 78.8 °F - 68.0 °F 69% 29.89 in 6.2 mi SE 23.0 mph - N/A   Mostly Cloudy
6:17 PM 78.8 °F - 68.0 °F 69% 29.89 in 6.2 mi SSE 19.6 mph 33.4 mph N/A   Mostly Cloudy
7:00 PM 78 °F - 68 °F 65% 29.93 in - SSE 12.7 mph - -  
7:00 PM 78.8 °F - 68.0 °F 69% 29.92 in 6.2 mi SSE 12.7 mph - N/A   Mostly Cloudy
7:30 PM 77.0 °F - 68.0 °F 74% 29.92 in 6.2 mi South 12.7 mph - N/A   Scattered Clouds
8:00 PM 75.2 °F - 69.8 °F 83% 29.92 in 6.2 mi SSE 13.8 mph - N/A Rain Light Rain Showers
8:30 PM 75.2 °F - 69.8 °F 83% 29.95 in 6.2 mi South 10.4 mph - N/A   Mostly Cloudy
9:00 PM 76 °F - 69 °F 73% 29.95 in 19 mi SSE 17.3 mph - -   Partly Cloudy
9:00 PM 77.0 °F - 69.8 °F 78% 29.95 in 6.2 mi SSE 17.3 mph - N/A   Mostly Cloudy
9:30 PM 75.2 °F - 69.8 °F 83% 29.95 in 6.2 mi South 12.7 mph - N/A   Mostly Cloudy
10:00 PM 75 °F - 70 °F 80% 29.96 in - SSE 16.1 mph - -  
10:00 PM 75.2 °F - 69.8 °F 83% 29.95 in 6.2 mi SSE 16.1 mph - N/A   Mostly Cloudy
10:30 PM 75.2 °F - 69.8 °F 83% 29.95 in 6.2 mi SSE 13.8 mph - N/A   Mostly Cloudy
11:00 PM 75.2 °F - 69.8 °F 83% 29.95 in 6.2 mi South 12.7 mph - N/A   Mostly Cloudy
11:30 PM 75.2 °F - 71.6 °F 89% 29.95 in 5.0 mi SE 17.3 mph - N/A Rain Light Rain Showers